TimeEST,TemperatureF,Dew PointF,Humidity,Sea Level PressureIn,VisibilityMPH,Wind Direction,Wind SpeedMPH,Gust SpeedMPH,PrecipitationIn,Events,Conditions,WindDirDegrees,DateUTC
12:53 AM,35.1,32.0,89,29.80,10.0,NNW,4.6,-,N/A,,Overcast,340,2012-12-18 05:53:00
1:53 AM,37.0,33.1,86,29.76,10.0,Variable,3.5,-,N/A,,Overcast,0,2012-12-18 06:53:00
2:53 AM,36.0,33.1,89,29.74,9.0,Calm,Calm,-,0.01,Rain,Light Rain,0,2012-12-18 07:53:00
3:01 AM,35.6,33.8,93,29.71,8.0,Calm,Calm,-,0.00,Rain,Light Rain,0,2012-12-18 08:01:00
3:10 AM,37.4,33.8,87,29.71,7.0,Variable,3.5,-,0.00,Rain,Light Rain,0,2012-12-18 08:10:00
3:20 AM,37.4,33.8,87,29.70,5.0,NNE,3.5,-,0.01,Rain,Light Rain,20,2012-12-18 08:20:00
3:30 AM,35.6,33.8,93,29.70,5.0,North,4.6,-,0.02,Rain,Light Rain,10,2012-12-18 08:30:00
3:53 AM,37.0,34.0,89,29.70,6.0,NE,4.6,-,0.04,Rain,Light Rain,50,2012-12-18 08:53:00
4:53 AM,37.9,34.0,86,29.65,10.0,NE,4.6,-,0.01,Rain,Light Rain,50,2012-12-18 09:53:00
5:53 AM,36.0,34.0,93,29.65,10.0,Calm,Calm,-,0.01,Rain,Light Rain,0,2012-12-18 10:53:00
6:53 AM,37.0,34.0,89,29.64,6.0,Variable,4.6,-,0.06,Rain,Light Rain,0,2012-12-18 11:53:00
7:18 AM,35.6,32.0,87,29.61,2.5,North,3.5,-,0.07,Rain,Rain,10,2012-12-18 12:18:00
7:33 AM,35.6,33.8,93,29.60,5.0,North,4.6,-,0.08,Rain,Light Rain,350,2012-12-18 12:33:00
7:53 AM,35.1,33.1,92,29.62,6.0,Calm,Calm,-,0.08,Rain,Light Rain,0,2012-12-18 12:53:00
8:01 AM,35.6,33.8,93,29.59,4.0,Calm,Calm,-,0.00,Rain,Light Rain,0,2012-12-18 13:01:00
8:16 AM,35.6,33.8,93,29.58,4.0,NNW,3.5,-,0.00,Rain,Light Rain,340,2012-12-18 13:16:00
8:50 AM,35.6,33.8,93,29.56,6.0,NNW,3.5,-,0.01,,Overcast,340,2012-12-18 13:50:00
8:53 AM,35.1,33.1,92,29.58,5.0,NW,3.5,-,0.01,Rain,Light Rain,320,2012-12-18 13:53:00
9:20 AM,35.6,33.8,93,29.56,5.0,Calm,Calm,-,0.00,Rain,Light Rain,0,2012-12-18 14:20:00
9:30 AM,35.6,33.8,93,29.56,8.0,Calm,Calm,-,0.00,,Overcast,0,2012-12-18 14:30:00
9:53 AM,36.0,34.0,93,29.57,4.0,Calm,Calm,-,0.00,Rain,Light Rain,0,2012-12-18 14:53:00
9:57 AM,35.6,33.8,93,29.55,2.5,Calm,Calm,-,0.01,Rain,Light Rain,0,2012-12-18 14:57:00
10:13 AM,35.6,33.8,93,29.53,4.0,NW,4.6,-,0.02,Rain,Light Rain,320,2012-12-18 15:13:00
10:36 AM,37.4,35.6,93,29.52,7.0,Calm,Calm,-,0.03,Rain,Light Rain,0,2012-12-18 15:36:00
10:53 AM,37.9,35.1,89,29.53,4.0,Calm,Calm,-,0.03,Rain,Light Rain,0,2012-12-18 15:53:00
11:12 AM,37.4,33.8,87,29.50,6.0,North,3.5,-,0.01,Rain,Light Rain,350,2012-12-18 16:12:00
11:27 AM,37.4,35.6,93,29.49,5.0,Calm,Calm,-,0.01,Rain,Light Rain,0,2012-12-18 16:27:00
11:53 AM,37.9,36.0,93,29.50,6.0,Calm,Calm,-,0.01,,Overcast,0,2012-12-18 16:53:00
12:05 PM,37.4,35.6,93,29.48,5.0,North,4.6,-,0.01,Rain,Light Rain,350,2012-12-18 17:05:00
12:35 PM,37.4,35.6,93,29.46,2.5,NNE,3.5,-,0.03,Rain,Light Rain,20,2012-12-18 17:35:00
12:53 PM,37.9,36.0,93,29.47,3.0,North,4.6,-,0.04,Rain,Light Rain,360,2012-12-18 17:53:00
1:40 PM,37.4,35.6,93,29.44,2.5,NNE,4.6,-,0.00,,Overcast,30,2012-12-18 18:40:00
1:45 PM,37.4,35.6,93,29.44,3.0,North,3.5,-,0.00,,Overcast,360,2012-12-18 18:45:00
1:53 PM,37.0,35.1,93,29.46,3.0,Variable,3.5,-,0.00,,Overcast,0,2012-12-18 18:53:00
2:30 PM,37.4,35.6,93,29.45,5.0,Calm,Calm,-,N/A,,Overcast,0,2012-12-18 19:30:00
2:40 PM,37.4,35.6,93,29.45,6.0,NNE,4.6,-,N/A,,Overcast,30,2012-12-18 19:40:00
2:53 PM,37.9,36.0,93,29.47,7.0,Calm,Calm,-,N/A,,Overcast,0,2012-12-18 19:53:00
3:08 PM,37.4,35.6,93,29.45,1.8,Calm,Calm,-,0.00,Rain,Light Rain,0,2012-12-18 20:08:00
3:35 PM,37.4,35.6,93,29.45,0.8,Calm,Calm,-,0.04,Rain,Light Rain,0,2012-12-18 20:35:00
3:51 PM,37.4,35.6,93,29.45,0.8,Calm,Calm,-,0.06,Rain,Light Rain,0,2012-12-18 20:51:00
3:53 PM,37.0,35.1,93,29.47,0.8,Calm,Calm,-,0.06,Rain,Light Rain,0,2012-12-18 20:53:00
4:00 PM,37.4,35.6,93,29.45,1.2,NE,3.5,-,0.00,Rain,Light Rain,50,2012-12-18 21:00:00
4:16 PM,35.6,35.6,100,29.45,1.2,Calm,Calm,-,0.01,Rain,Light Rain,0,2012-12-18 21:16:00
4:23 PM,35.6,33.8,93,29.45,0.8,Calm,Calm,-,0.01,Rain,Light Rain,0,2012-12-18 21:23:00
4:30 PM,35.6,33.8,93,29.45,1.0,Calm,Calm,-,0.01,Rain,Light Rain,0,2012-12-18 21:30:00
4:53 PM,36.0,34.0,93,29.47,1.0,Calm,Calm,-,0.02,Rain,Light Rain,0,2012-12-18 21:53:00
5:07 PM,35.6,33.8,93,29.45,1.2,Calm,Calm,-,0.01,Rain,Light Rain,0,2012-12-18 22:07:00
5:53 PM,37.0,35.1,93,29.47,1.2,Calm,Calm,-,0.04,Rain,Light Rain,0,2012-12-18 22:53:00
6:00 PM,35.6,33.8,93,29.45,2.0,Calm,Calm,-,0.00,Rain,Light Rain,0,2012-12-18 23:00:00
6:16 PM,35.6,33.8,93,29.45,2.0,Calm,Calm,-,0.00,,Overcast,0,2012-12-18 23:16:00
6:39 PM,35.6,33.8,93,29.46,3.0,Calm,Calm,-,0.00,Rain,Light Rain,0,2012-12-18 23:39:00
6:53 PM,36.0,34.0,93,29.48,3.0,Calm,Calm,-,0.01,Rain,Light Rain,0,2012-12-18 23:53:00
7:02 PM,35.6,33.8,93,29.46,2.0,Calm,Calm,-,0.00,Rain,Light Rain,0,2012-12-19 00:02:00
7:53 PM,36.0,35.1,97,29.48,2.0,Calm,Calm,-,0.01,,Overcast,0,2012-12-19 00:53:00
8:53 PM,36.0,34.0,93,29.49,2.0,Calm,Calm,-,0.01,Rain,Light Rain,0,2012-12-19 01:53:00
9:00 PM,35.6,33.8,93,29.47,4.0,Calm,Calm,-,0.00,Rain,Light Rain,0,2012-12-19 02:00:00
9:20 PM,35.6,33.8,93,29.46,4.0,Calm,Calm,-,0.00,Rain,Light Rain,0,2012-12-19 02:20:00
9:53 PM,36.0,33.1,89,29.48,3.0,Calm,Calm,-,0.01,,Overcast,0,2012-12-19 02:53:00
10:09 PM,35.6,33.8,93,29.46,2.0,Calm,Calm,-,N/A,,Overcast,0,2012-12-19 03:09:00
10:23 PM,35.6,33.8,93,29.46,2.0,Calm,Calm,-,N/A,,Overcast,0,2012-12-19 03:23:00
10:53 PM,35.1,33.1,92,29.49,2.0,Calm,Calm,-,N/A,,Overcast,0,2012-12-19 03:53:00
11:04 PM,35.6,33.8,93,29.47,1.5,Calm,Calm,-,0.01,,Overcast,0,2012-12-19 04:04:00
11:31 PM,35.6,33.8,93,29.46,1.8,Calm,Calm,-,0.02,,Overcast,0,2012-12-19 04:31:00
11:40 PM,35.6,33.8,93,29.46,2.5,Calm,Calm,-,0.02,,Overcast,0,2012-12-19 04:40:00
11:49 PM,35.6,33.8,93,29.46,4.0,Calm,Calm,-,0.02,,Overcast,0,2012-12-19 04:49:00
11:53 PM,35.1,33.1,92,29.48,5.0,Calm,Calm,-,0.02,,Overcast,0,2012-12-19 04:53:00